Probability
6 7 7 6 6 7 10 13 15 16 16 17 18 18 16 15 17 21 22 22 22 21 20 19 18 17 15 13 11 9 8 9 9 8 7 8 8 8 8 7 6 6 5
6 6 6 6 7 8 11 14 16 17 17 18 19 19 17 15 16 17 18 19 20 20 21 22 20 20 20 18 14 11 10 10 10 9 8 9 8 6 6 5 5 5 5
4 4 4 5 7 10 13 15 17 17 18 18 19 18 16 15 15 15 15 15 16 17 21 23 22 22 23 23 20 15 12 13 14 11 10 11 9 7 6 5 5 6 5
3 2 2 4 8 11 13 15 16 16 15 16 17 17 16 16 15 15 14 13 13 14 17 20 20 19 20 22 22 20 17 16 16 15 14 12 11 10 9 8 9 9 7
3 2 3 5 8 11 14 15 15 14 13 14 16 18 17 16 14 13 13 12 12 12 14 17 18 16 15 16 16 17 17 17 17 17 16 15 14 15 13 13 14 13 11
7 6 5 6 9 12 14 14 14 14 15 15 16 18 17 14 11 10 10 11 11 11 12 15 17 15 14 12 10 9 10 11 13 16 17 18 18 18 16 15 15 15 12
12 11 9 10 12 13 12 11 12 15 17 17 16 16 16 13 8 6 6 8 11 11 12 14 15 15 16 15 12 7 6 7 9 14 18 19 19 17 14 13 14 14 13
16 14 14 14 14 13 12 10 10 12 15 17 16 15 15 13 7 3 3 6 9 10 11 12 14 15 16 17 17 15 13 10 9 11 15 17 15 13 11 11 12 12 12
15 14 14 14 14 14 14 13 11 11 12 14 15 16 17 13 7 2 2 5 7 9 11 11 11 12 11 12 17 22 21 16 11 8 8 9 9 8 8 9 10 9 8
13 13 12 12 13 14 15 16 16 14 12 13 16 17 16 14 8 2 2 6 8 10 12 11 9 7 5 6 13 21 22 19 15 10 7 8 9 8 7 7 8 8 7
13 14 14 13 13 14 16 19 20 18 16 17 18 18 16 14 8 3 2 6 10 12 13 12 10 6 2 2 7 13 15 15 15 15 13 13 13 12 10 8 8 9 9
16 16 16 15 13 14 18 22 22 20 20 20 20 19 18 15 10 5 2 3 7 11 13 12 10 6 2 1 3 5 6 8 12 16 16 15 14 12 11 11 10 11 11
16 17 17 16 15 15 18 21 20 20 20 20 19 18 18 16 13 8 4 2 3 7 10 9 6 3 2 2 2 2 3 6 11 14 16 14 11 9 9 9 10 10 11
16 17 17 16 16 17 17 18 19 19 20 20 18 18 19 18 15 13 10 6 4 5 7 7 5 4 5 6 5 4 5 8 11 13 14 13 10 7 7 8 9 10 9
16 16 15 14 15 17 17 17 18 19 19 18 17 17 18 17 14 12 10 8 5 5 6 8 9 10 11 12 11 9 9 10 10 11 11 11 10 8 6 8 10 10 8
15 14 12 11 13 15 16 16 16 15 13 11 9 10 12 12 8 5 4 3 3 3 4 9 12 14 15 15 15 13 12 12 12 11 10 10 10 8 7 8 9 9 8
15 13 11 10 10 11 11 12 11 10 7 4 3 3 4 4 2 1 0 0 0 0 3 8 12 14 15 16 17 16 14 14 14 14 12 11 10 9 6 6 7 8 8
13 12 11 10 9 8 7 7 8 7 6 5 3 2 0 0 0 0 0 1 2 3 5 8 12 15 17 18 18 17 16 17 17 15 13 12 11 9 7 6 6 7 7
9 9 9 9 8 7 6 6 6 7 6 6 5 4 2 2 2 2 1 3 5 6 6 9 12 15 16 16 16 17 17 17 17 15 14 14 14 12 9 6 5 5 4
7 7 7 7 7 7 6 6 6 7 6 7 8 8 6 5 6 5 4 5 7 7 7 9 12 13 12 11 12 14 14 14 15 15 15 15 16 15 12 8 6 5 5
7 7 6 6 6 6 5 5 5 6 6 7 9 10 8 8 8 8 6 6 6 7 8 9 10 10 9 9 9 10 10 10 11 13 14 14 15 14 12 10 9 7 7
7 7 6 6 6 5 4 4 5 6 6 7 8 8 7 7 7 7 7 6 6 7 8 8 8 7 7 7 7 6 6 6 8 9 10 11 11 11 10 9 8 7 6
7 7 7 7 7 5 4 5 5 5 5 5 5 5 6 6 6 6 6 6 6 5 5 6 5 4 4 4 4 4 4 4 5 6 7 8 8 8 7 7 6 4 4
6 6 7 8 7 6 5 4 4 3 3 2 2 3 5 6 6 5 4 4 4 4 4 4 3 2 1 1 2 2 2 2 3 4 5 6 6 6 6 4 3 2 2
6 6 6 6 6 6 5 4 2 1 1 0 1 2 4 5 4 4 3 3 3 3 3 3 3 3 1 0 1 1 1 1 1 2 3 3 4 4 4 3 3 2 1
4 4 4 4 4 4 4 3 1 0 0 0 1 2 2 3 4 3 3 3 3 3 3 3 3 3 2 1 0 0 0 0 0 0 1 1 1 2 3 4 3 2 1
Wind_Speed
0 0 1 1 1 2 2 2 2 2 2 2 2 3 3 3 2 3 3 3 4 4 4 4 4 4 3 3 3 3 3 3 3 3 2 2 3 5 3 5 5 6 7
0 0 1 1 2 2 2 2 2 2 3 2 3 3 3 3 3 3 4 3 4 4 4 4 4 3 4 3 3 3 3 3 4 4 3 3 4 5 4 6 5 5 5
0 1 1 2 2 3 3 3 3 3 3 3 3 3 3 3 3 3 4 4 4 4 4 4 4 4 4 3 4 3 3 4 4 4 4 3 3 4 4 5 6 4 6
1 2 2 2 3 3 3 3 3 3 4 3 3 3 3 3 3 3 3 4 4 4 4 4 4 4 4 4 4 4 4 4 4 4 4 3 3 3 4 4 5 5 5
2 2 2 3 3 3 3 3 3 4 4 4 4 4 4 4 3 3 4 4 4 5 5 4 4 4 4 4 4 4 4 4 4 4 5 4 4 3 4 4 4 4 4
2 3 2 3 3 3 4 4 4 4 4 4 4 5 5 3 1 2 5 5 5 5 5 5 5 6 5 6 6 5 5 6 6 5 5 4 4 4 4 5 4 4 4
2 3 3 3 3 3 4 4 4 4 5 5 5 5 5 3 2 4 6 7 6 5 5 5 5 3 5 5 6 8 8 8 7 7 6 6 5 4 4 6 5 6 6
2 2 3 4 4 4 4 4 4 4 5 5 5 5 6 4 4 5 6 8 6 6 6 6 6 5 4 5 6 6 7 7 8 8 7 7 6 4 5 6 6 7 7
2 3 3 4 4 4 5 5 5 5 5 5 5 5 6 4 4 5 5 6 5 6 6 6 7 7 3 4 7 7 7 7 7 8 7 7 5 5 5 6 6 6 6
3 3 3 4 4 5 5 5 5 5 6 6 5 5 6 5 4 5 6 6 5 6 6 6 6 7 4 5 7 7 7 7 6 6 7 8 9 8 9 8 7 7 6
3 3 3 3 4 4 4 4 5 5 5 5 5 5 5 5 5 5 6 6 6 6 6 5 4 7 7 7 8 8 7 7 7 7 7 7 7 7 8 8 7 7 7
3 3 3 4 4 3 4 4 4 5 5 5 5 5 4 4 4 5 7 8 8 7 6 5 3 4 7 8 8 7 8 8 7 7 6 6 6 6 5 6 7 8 7
4 4 4 4 4 4 4 4 4 3 4 4 4 4 4 3 2 4 6 7 8 7 6 5 5 5 7 8 10 9 8 7 7 7 7 6 5 5 5 5 6 6 7
4 4 4 4 4 3 4 4 4 4 4 4 4 4 4 3 3 3 3 4 5 6 5 4 6 7 7 7 5 7 7 6 6 7 6 5 5 5 5 5 5 4 5
4 4 4 4 3 3 3 3 4 3 4 5 5 5 5 4 4 5 5 4 4 3 4 4 4 4 4 4 5 4 5 5 6 6 6 5 5 5 5 4 4 5 5
4 4 4 3 3 3 3 3 1 3 2 3 5 6 4 5 5 5 5 6 5 4 4 4 4 4 5 5 4 4 4 5 5 5 5 5 5 5 5 4 4 5 5
5 5 5 4 4 4 4 4 4 2 2 3 4 4 5 6 6 6 5 4 4 3 4 4 4 4 5 5 5 5 5 4 4 4 4 4 5 5 4 4 4 4 4
5 4 4 4 4 4 4 4 4 5 4 3 2 3 3 4 4 5 4 3 2 3 4 4 4 4 4 5 5 5 5 4 3 3 4 4 4 4 4 4 4 4 4
5 3 4 4 4 4 4 4 4 5 5 4 3 1 1 2 2 2 2 3 3 3 3 3 4 4 4 4 4 4 4 4 4 4 4 4 4 4 4 4 4 4 5
3 2 4 4 4 3 3 4 4 4 4 4 4 4 2 2 2 2 2 3 3 3 3 3 3 4 4 4 4 4 4 3 4 3 3 3 3 4 4 5 4 4 4
4 2 3 4 4 4 4 4 4 4 4 4 4 3 4 4 4 4 3 3 3 4 4 4 4 4 3 3 3 4 4 3 3 3 3 3 3 4 4 4 4 4 4
4 4 3 3 3 3 4 4 4 4 4 5 4 2 2 4 4 4 4 3 3 3 4 4 4 4 4 4 4 3 3 3 3 3 3 3 3 4 4 4 4 4 4
4 4 3 3 3 3 4 4 4 4 4 4 3 3 2 3 4 3 4 4 3 3 3 3 4 3 3 3 3 3 4 4 4 4 4 4 4 4 3 4 5 5 4
4 4 4 3 3 3 3 3 3 3 4 4 3 3 3 3 3 3 3 3 3 3 3 3 3 4 5 4 3 3 3 4 5 4 5 5 5 4 4 4 4 5 4
3 4 4 4 3 3 3 4 3 4 3 3 4 4 4 4 3 3 3 3 3 3 4 4 3 4 5 6 5 5 5 5 5 6 5 5 5 5 4 4 4 4 4
3 4 3 3 3 3 3 3 4 4 4 4 4 4 4 3 3 3 3 3 4 4 4 4 4 5 5 4 5 6 4 4 4 6 6 5 5 4 5 4 5 4 4
Wind_Direction
134 350 342 324 322 305 301 308 306 307 310 302 295 286 277 262 246 239 249 233 231 231 235 230 234 254 245 239 241 240 245 256 254 258 232 192 211 242 203 229 222 218 203
143 269 297 303 304 297 302 302 298 296 292 292 286 273 263 259 251 246 251 247 240 238 237 239 241 233 233 243 244 241 243 247 246 249 243 216 218 228 222 233 229 224 226
283 278 298 296 299 302 306 300 295 288 291 291 282 276 272 267 257 255 256 255 250 247 245 240 242 238 235 237 240 242 244 242 243 247 243 225 224 219 221 230 232 234 240
307 290 288 291 295 298 297 290 287 282 280 283 279 276 271 264 257 258 258 259 256 256 253 245 242 237 235 239 232 234 244 249 243 251 250 231 227 211 224 234 231 219 237
291 290 297 292 290 290 289 282 279 277 276 276 273 270 268 257 254 268 260 250 252 252 248 244 241 239 247 247 254 236 236 243 245 245 246 241 233 220 232 240 244 238 228
287 298 304 294 293 296 291 286 279 276 278 273 267 266 264 269 357 298 281 265 253 249 249 248 238 225 225 223 243 251 250 245 251 251 247 250 246 241 247 254 256 253 247
298 301 294 291 294 293 292 290 282 276 273 271 270 266 263 257 223 246 263 267 255 250 250 253 255 241 232 239 230 229 236 241 245 255 261 260 256 250 255 256 251 256 262
298 303 303 297 290 287 287 288 283 280 277 273 271 269 267 252 212 227 251 253 255 251 248 249 255 256 249 254 253 243 243 238 232 239 257 262 264 265 252 253 257 251 249
312 308 308 300 294 289 287 289 287 281 278 275 273 272 270 260 219 222 243 252 247 248 249 249 253 253 238 245 252 251 252 251 232 229 246 260 274 264 260 257 249 248 250
315 307 300 293 292 290 289 287 284 277 272 273 273 271 269 268 230 220 235 255 252 250 242 238 231 247 240 220 243 251 254 259 263 241 232 234 239 231 222 238 250 253 259
319 310 301 295 285 284 289 289 287 282 281 279 279 272 265 265 240 219 228 259 264 259 257 250 232 199 222 225 241 252 256 267 263 256 248 241 235 233 226 226 237 250 259
315 306 301 298 293 298 296 294 291 289 281 278 275 274 268 256 248 225 222 243 268 267 268 269 261 199 218 227 236 250 256 256 256 254 250 247 245 244 242 240 238 243 252
310 302 296 294 293 294 288 288 284 280 285 291 289 286 289 292 259 216 222 242 251 257 270 291 291 248 238 233 229 237 241 243 249 249 249 250 250 252 254 243 238 238 244
307 305 297 290 288 288 287 287 291 299 298 298 298 299 297 295 302 299 270 250 238 245 264 264 243 239 243 261 252 227 234 245 252 253 254 258 262 254 247 250 247 238 245
309 303 295 294 300 295 287 294 293 303 312 300 304 303 302 303 335 339 310 300 302 313 300 276 271 263 252 247 249 251 248 242 241 249 252 251 251 252 251 249 251 250 248
303 301 298 295 300 293 296 295 313 289 295 274 284 292 304 320 326 317 308 306 307 302 281 271 274 275 274 276 275 266 252 250 253 252 248 251 254 255 255 254 251 251 253
308 306 301 300 297 294 296 297 297 291 252 250 257 268 281 303 314 309 298 288 276 247 250 267 274 276 276 276 275 275 272 264 257 256 257 257 257 257 256 255 254 256 257
303 305 296 297 299 299 299 300 303 305 302 301 255 228 251 274 292 299 293 276 264 235 261 274 281 283 281 279 279 279 281 284 277 266 260 262 264 262 263 264 260 264 267
307 317 314 307 302 305 308 304 303 307 308 309 315 332 235 260 256 281 263 283 299 292 286 290 294 294 294 294 294 292 289 287 289 284 275 267 263 263 265 270 268 257 258
295 312 304 300 302 307 303 303 307 309 308 310 315 328 340 319 311 314 292 305 306 306 306 305 305 304 303 303 300 297 291 288 287 282 281 280 275 270 268 267 273 272 262
299 291 268 291 305 309 308 305 304 303 306 308 312 344 341 307 310 318 313 311 313 317 316 312 312 310 307 306 305 305 302 301 299 301 295 288 287 285 279 273 273 272 270
293 290 286 289 290 298 303 302 300 300 303 304 309 329 321 297 308 313 318 322 321 323 328 322 320 325 326 323 319 315 311 310 307 300 297 292 279 275 278 276 272 271 269
281 289 289 285 287 281 277 287 297 301 301 301 307 313 307 302 307 315 320 327 331 329 331 324 321 329 332 327 325 321 313 307 303 301 294 290 290 285 280 276 273 273 275
285 291 296 295 293 294 293 294 296 301 305 311 312 309 310 311 312 321 324 325 321 323 325 325 323 330 330 326 324 326 340 332 311 293 292 288 282 282 283 280 278 282 282
300 301 301 300 298 298 299 300 303 305 311 315 314 314 320 320 318 318 317 321 321 326 330 329 328 333 338 340 342 348 1 345 323 311 289 281 281 282 288 288 287 284 282
307 307 309 310 310 308 303 304 309 314 312 313 314 316 317 317 318 320 324 332 330 332 334 340 347 347 349 352 3 360 350 338 327 312 296 284 287 291 296 292 292 290 292